#timestamp,LO_Frequency,Hit 
1501642815.4,286047070.8,N
1501642835.3,286047070.6,N
1501642855.1,286047071.2,N
1501642856.0,286047071.2,N
1501642875.8,286047070.8,N
1501642895.6,286047073.0,N
1501642915.5,286047073.2,N
1501642935.3,286047070.6,N
1501642955.1,286047074.8,N
1501642975.9,286047072.2,N
1501642995.7,286047071.7,N
1501643015.5,286047074.2,N
1501643035.4,286047072.2,N
1501643055.2,286047070.7,N
1501643075.0,286047071.6,N
1501643075.9,286047071.6,N
1501643095.8,286047070.9,N
1501643115.6,286047070.8,N
1501643135.4,286047072.1,N
1501643155.2,286047072.4,N
1501643175.1,286047071.7,N
1501643176.0,286047071.7,N
1501643195.8,286047074.1,N
1501643215.6,286047072.3,N
1501643235.5,286047071.8,N
1501643255.3,286047075.7,N
1501643275.1,286047076.1,N
1501643295.9,286047072.6,N
1501643315.7,286047070.6,N
1501643335.5,286047070.6,N
1501643355.4,286047072.1,N
1501643375.2,286047074.5,N
1501643395.0,286047074.2,N
1501643395.9,286047074.2,N
1501643415.8,286047071.7,N
1501643435.6,286047074.8,N
1501643455.4,286047071.8,N
1501643475.2,286047071.9,N
1501643495.1,286047074.8,N
1501643496.0,286047074.8,N
1501643515.8,286047074.2,N
1501643535.6,286047076.1,N
1501643555.5,286047074.2,N
1501643575.3,286047074.4,N
1501643595.1,286047074.5,N
1501643615.9,286047073.1,N
1501643635.7,286047074.5,N
1501643655.5,286047071.9,N
1501643675.3,286047074.8,N
1501643695.2,286047072.1,N
1501643715.0,286047072.4,N
1501643715.9,286047072.4,N
1501643735.7,286047074.2,N
1501643755.6,286047074.2,N
1501643775.4,286047076.3,N
1501643795.2,286047074.0,N
1501643815.1,286047074.4,N
1501643816.0,286047074.4,N
1501643835.8,286047075.2,N
1501643855.6,286047076.2,N
1501643875.5,286047076.1,N
1501643895.3,286047074.1,N
1501643915.1,286047074.4,N
1501643935.9,286047070.3,N
1501643955.7,286047072.9,N
1501643975.5,286047074.0,N
1501643995.3,286047073.6,N
1501644015.2,286047075.0,N
1501644035.9,286047078.0,N
1501644055.7,286047075.3,N
1501644075.6,286047074.4,N
1501644095.4,286047076.4,N
1501644115.2,286047075.8,N
1501644135.1,286047078.0,N
1501644136.0,286047078.0,N
1501644155.8,286047076.2,N
1501644175.6,286047077.2,N
1501644195.4,286047079.4,N
1501644215.3,286047078.5,N
1501644235.1,286047080.9,N
1501644255.8,286047080.2,N
1501644275.7,286047081.6,N
1501644295.5,286047082.2,Y
1501644315.3,286046997.4,N
1501644335.2,286046997.3,N
1501644355.0,286046996.6,N
1501644355.9,286046996.6,N
1501644375.7,286046997.0,N
1501644395.6,286046996.9,N
1501644415.4,286046998.6,N
1501644435.2,286046996.6,N
1501644455.1,286046999.0,N
1501644456.0,286046999.0,N
1501644475.8,286046997.1,N
1501644495.6,286046995.6,N
1501644515.5,286046998.0,N
1501644535.3,286046993.6,N
1501644555.1,286046995.8,N
1501644575.8,286046993.9,N
1501644595.7,286046994.1,N
1501644615.5,286046993.8,N
1501644635.3,286046993.7,N
1501644655.2,286046994.9,N
1501644675.9,286046996.2,N
1501644695.7,286046995.7,N
1501644715.6,286046996.0,N
1501644735.4,286046995.9,N
1501644755.2,286046996.4,N
1501644775.1,286046995.7,N
1501644776.0,286046995.7,N
1501644795.8,286046995.7,N
1501644815.6,286046996.2,N
1501644835.4,286046995.7,N
1501644855.3,286046996.2,N
1501644875.1,286046994.7,N
1501644895.8,286046991.8,N
1501644915.7,286046994.7,N
1501644935.5,286046994.8,N
1501644955.3,286046994.7,N
1501644975.2,286046996.1,N
1501644995.9,286046995.8,N
1501645015.7,286046997.5,N
1501645035.6,286046997.8,N
1501645055.4,286046995.9,N
1501645075.2,286046996.1,N
1501645095.0,286046995.1,N
1501645096.0,286046995.1,N
1501645115.8,286046996.8,N
1501645135.6,286046997.4,N
1501645155.4,286046997.6,N
1501645175.3,286046997.1,N
1501645195.1,286046996.6,N
1501645215.8,286047001.1,N
1501645235.7,286047000.8,N
1501645255.5,286046999.4,N
1501645275.3,286047001.2,N
1501645295.2,286046999.5,N
1501645315.9,286046997.5,N
1501645335.7,286046997.3,N
1501645355.6,286046998.3,N
1501645375.4,286047002.1,N
1501645395.2,286047001.6,N
1501645415.0,286047004.4,N
1501645415.9,286047004.4,N
1501645435.8,286047004.1,N
1501645455.6,286047003.4,N
1501645475.4,286047005.7,N
1501645495.3,286047002.9,N
1501645515.1,286047006.0,N
1501645535.8,286047005.1,N
1501645555.7,286047007.0,N
1501645575.5,286047007.5,N
1501645595.3,286047006.7,N
1501645615.2,286047007.4,N
1501645635.9,286047006.9,N
1501645655.7,286047004.9,N
1501645675.5,286047004.8,N
1501645695.4,286047003.8,N
1501645715.2,286047001.5,N
1501645735.0,286047001.5,N
1501645735.9,286047001.5,N
1501645755.8,286047004.4,N
1501645775.6,286047001.7,N
1501645795.4,286047001.4,N
1501645815.3,286047004.4,N
1501645835.1,286046999.7,N
1501645836.0,286046999.7,N
1501645855.8,286047001.5,N
1501645875.7,286047005.9,N
1501645895.5,286047003.4,N
1501645915.3,286047002.9,N
1501645935.2,286047005.0,N
1501645955.9,286047005.6,N
1501645975.7,286047006.7,N
1501645995.5,286047004.6,N
1501646015.4,286047005.2,N
1501646035.2,286047004.8,N
1501646055.0,286047005.8,N
1501646055.9,286047005.8,N
1501646075.8,286047003.0,N
1501646095.6,286047004.8,N
1501646115.4,286047005.7,N
1501646135.3,286047003.7,N
1501646155.1,286047003.3,N
1501646156.0,286047003.3,N
1501646175.8,286047005.3,N
1501646195.7,286047005.8,N
1501646215.5,286047003.8,N
1501646235.3,286047003.4,N
1501646255.1,286047004.0,N
1501646275.9,286047004.4,N
1501646295.7,286047005.5,N
1501646315.5,286047004.1,N
1501646335.4,286047003.6,N
1501646355.2,286046999.8,N
1501646375.0,286047002.2,N
1501646375.9,286047002.2,N
1501646395.8,286047002.3,N
